This demonstration page uses our WeatherBlox Daily Observations layout. Learn more.

Left ArrowRight Arrow

39.51506, -84.39828

Hourly Observations for March 11, 2015

Temp ( °F °C ) Dew Point ( °F °C ) Humidity (%) Winds ( mph kmh ) Pressure ( in mb ) Visibility ( mi km ) Precip ( " mm )
12:15 am 00:15 Cloudy with Fog 43 6.3 41 4.8 90 90 N N/A 30.06 1018 0 0 N/A
12:35 am 00:35 Cloudy with Mist and Fog 43 6.3 41 4.8 90 90 N N/A 30.09 1019 1 1 N/A
12:55 am 00:55 Cloudy with Fog 44 6.8 42 5.3 90 90 N N/A 30.09 1019 1 1 N/A
1:15 am 01:15 Cloudy with Fog 44 6.6 41 5 90 90 N N/A 30.09 1019 0 0 N/A
1:35 am 01:35 Cloudy with Fog 43 6.2 40 4.6 90 90 N N/A 30.09 1019 0 0 N/A
1:55 am 01:55 Cloudy with Fog 43 6.2 40 4.6 90 90 N N/A 30.09 1019 0 0 N/A
2:15 am 02:15 Cloudy with Fog 43 6.1 40 4.6 90 90 N N/A 30.09 1019 0 0 N/A
2:35 am 02:35 Cloudy with Fog 42 5.8 40 4.3 90 90 N N/A 30.12 1020 0 0 N/A
2:55 am 02:55 Cloudy with Fog 42 5.8 40 4.3 90 90 N N/A 30.12 1020 0 0 N/A
3:15 am 03:15 Cloudy with Fog 43 6 40 4.5 90 90 N N/A 30.12 1020 0 0 N/A
3:35 am 03:35 Cloudy with Fog 42 5.5 39 4 90 90 N N/A 30.12 1020 1 1 N/A
3:55 am 03:55 Cloudy with Fog 42 5.8 40 4.3 90 90 N N/A 30.12 1020 1 1 N/A
4:15 am 04:15 Cloudy with Fog 42 5.8 40 4.3 90 90 N N/A 30.12 1020 1 1 N/A
4:35 am 04:35 Cloudy with Fog 42 5.5 39 4 90 90 N N/A 30.12 1020 5 8 N/A
4:55 am 04:55 Cloudy with Fog 42 5.5 39 4 90 90 N N/A 30.12 1020 0 0 N/A
5:15 am 05:15 Cloudy with Fog 42 5.5 39 4 90 90 N N/A 30.12 1020 0 0 N/A
5:35 am 05:35 Cloudy with Fog 42 5.5 39 4 90 90 N N/A 30.12 1020 0 0 N/A
5:55 am 05:55 Cloudy with Mist and Fog 42 5.5 39 4 90 90 N N/A 30.15 1021 1 1 N/A
6:15 am 06:15 Cloudy with Fog 42 5.5 39 4 90 90 N N/A 30.15 1021 0 0 N/A
6:35 am 06:35 Cloudy with Fog 40 4.7 38 3.2 90 90 N N/A 30.15 1021 0 0 N/A
6:55 am 06:55 Cloudy with Fog 40 4.7 38 3.2 90 90 N N/A 30.21 1023 1 1 N/A
7:15 am 07:15 Cloudy with Fog 40 4.7 38 3.2 90 90 N N/A 30.21 1023 1 1 N/A
7:35 am 07:35 Cloudy with Fog 40 4.2 37 2.7 90 90 N N/A 30.21 1023 1 1 N/A
7:55 am 07:55 Cloudy with Fog 39 4 37 2.5 90 90 N N/A 30.21 1023 1 1 N/A
8:15 am 08:15 Cloudy with Fog 39 4 37 2.5 90 90 N N/A 30.24 1024 0 0 N/A
8:35 am 08:35 Cloudy with Fog 39 4 37 2.5 90 90 N N/A 30.24 1024 0 0 N/A
8:55 am 08:55 Cloudy with Fog 39 4 37 2.5 90 90 N N/A 30.24 1024 1 1 N/A
9:15 am 09:15 Cloudy with Mist and Fog 39 4 37 2.5 90 90 N N/A 30.24 1024 4 6 N/A
9:35 am 09:35 Cloudy 39 4.1 37 2.6 90 90 N N/A 30.24 1024 7 11 N/A
9:55 am 09:55 Cloudy with Mist and Fog 40 4.4 37 2.9 90 90 N N/A 30.27 1025 5 8 N/A
10:15 am 10:15 Cloudy with Mist and Fog 40 4.7 38 3.2 90 90 N N/A 30.27 1025 5 8 N/A
10:35 am 10:35 Cloudy with Mist and Fog 40 4.7 38 3.2 90 90 N N/A 30.27 1025 2 3 N/A
10:55 am 10:55 Cloudy with Mist and Fog 41 5.2 39 3.7 90 90 N N/A 30.27 1025 1 2 N/A
11:15 am 11:15 Cloudy with Mist and Fog 42 5.5 39 4 90 90 N N/A 30.24 1024 2 3 N/A
11:35 am 11:35 Cloudy with Mist and Fog 42 5.8 40 4.4 91 91 S 3 6 30.24 1024 3 4 N/A
11:55 am 11:55 Cloudy with Mist and Fog 44 6.4 41 5.1 92 92 S 5 7 30.24 1024 3 5 N/A
12:15 pm 12:15 Cloudy with Mist and Fog 44 6.8 42 5.3 90 90 SSE 3 6 30.24 1024 4 6 N/A
12:35 pm 12:35 Cloudy with Mist and Fog 47 8.2 44 6.7 90 90 N N/A 30.24 1024 5 8 N/A
12:55 pm 12:55 Mostly Cloudy with Mist and Fog 49 9.6 47 8.1 90 90 WSW 3 6 30.24 1024 5 8 N/A
1:15 pm 13:15 Partly Cloudy 49 9.6 46 8 90 90 WSW 3 6 N/A 7 11 N/A
1:35 pm 13:35 Sunny 50 10 47 8.3 89 89 N N/A 30.24 1024 10 16 N/A
1:55 pm 13:55 Sunny 55 12.5 50 9.9 84 84 N N/A 30.24 1024 10 16 N/A
2:15 pm 14:15 Sunny 56 13.6 48 9.1 74 74 WSW 3 6 30.24 1024 10 16 N/A
2:35 pm 14:35 Sunny 57 13.8 47 8.3 70 70 N N/A 30.24 1024 10 16 N/A
2:55 pm 14:55 Sunny 60 15.3 48 9.1 67 67 N N/A 30.24 1024 10 16 N/A
3:15 pm 15:15 Sunny 60 15.3 48 8.7 65 65 SSW 7 11 30.24 1024 10 16 N/A
3:35 pm 15:35 Sunny 61 15.9 48 8.8 63 63 SSW 3 6 30.24 1024 10 16 N/A
3:55 pm 15:55 Sunny 61 16.3 48 8.9 62 62 SW 6 9 30.24 1024 10 16 N/A
4:15 pm 16:15 Sunny 62 16.6 47 8.1 57 57 N N/A 30.24 1024 10 16 N/A
4:35 pm 16:35 Sunny 64 18 46 7.8 52 52 W 8 13 30.21 1023 10 16 N/A
4:55 pm 16:55 Sunny 64 18 44 6.9 48 48 W 7 11 30.21 1023 10 16 N/A
5:15 pm 17:15 Sunny 64 18 44 6.5 47 47 W 7 11 30.21 1023 10 16 N/A
5:35 pm 17:35 Sunny 64 18 43 6 46 46 NNW 6 9 30.21 1023 10 16 N/A
5:55 pm 17:55 Sunny 64 18 44 6.5 47 47 NNW 10 17 30.21 1023 10 16 N/A
6:15 pm 18:15 Sunny 63 17.1 44 6.4 50 50 N 3 6 30.24 1024 10 16 N/A
6:35 pm 18:35 Sunny 62 16.9 44 6.9 52 52 N 5 7 30.24 1024 10 16 N/A
6:55 pm 18:55 Sunny 62 16.6 45 7.4 55 55 N 5 7 30.27 1025 10 16 N/A
7:15 pm 19:15 Hazy 57 13.8 46 7.9 68 68 NNE 13 20 30.27 1025 5 8 N/A
7:35 pm 19:35 Hazy 55 12.5 46 8 74 74 NNE 13 20 30.30 1026 4 6 N/A
7:55 pm 19:55 Hazy 50 9.8 43 6.1 78 78 N 10 17 30.30 1026 4 6 N/A
8:15 pm 20:15 Hazy 49 9.6 43 6.2 80 80 N 8 13 30.33 1027 5 8 N/A
8:35 pm 20:35 Hazy 49 9.6 44 6.5 81 81 N 5 7 30.33 1027 4 6 N/A
8:55 pm 20:55 Hazy 49 9.4 44 6.7 83 83 NNE 9 15 30.36 1028 4 6 N/A
9:15 pm 21:15 Hazy 45 7.1 40 4.5 84 84 N 12 19 30.36 1028 3 5 N/A
9:35 pm 21:35 Clear with Mist and Fog 44 6.7 40 4.3 85 85 N 8 13 30.36 1028 3 5 N/A
9:55 pm 21:55 Partly Cloudy with Mist and Fog 44 6.8 40 4.5 85 85 NNE 9 15 30.42 1030 3 5 N/A
10:15 pm 22:15 Partly Cloudy with Mist and Fog 43 6.3 39 4 85 85 NNE 6 9 30.42 1030 3 5 N/A
10:35 pm 22:35 Partly Cloudy with Mist and Fog 43 6.1 39 3.8 85 85 NNE 7 11 30.45 1031 3 4 N/A
10:55 pm 22:55 Cloudy with Mist and Fog 43 6.1 39 3.8 85 85 NNE 12 19 30.45 1031 3 4 N/A
11:15 pm 23:15 Mostly Cloudy with Mist and Fog 43 5.9 38 3.6 85 85 NE 3 6 30.45 1031 3 4 N/A
11:35 pm 23:35 Partly Cloudy with Mist and Fog 42 5.5 38 3.2 85 85 NE 5 7 30.45 1031 3 4 N/A
11:55 pm 23:55 Clear with Mist and Fog 40 4.7 37 2.5 86 86 N 5 7 30.45 1031 2 3 N/A

Powered by AerisWeather